Tracking 29892 objects as of 21-Nov-2024
HD Live streaming from Space Station
objects crossing your sky now

DELTA 1 DEB

Track DELTA 1 DEB now!
10-day predictions


NORAD ID: 7126
Int'l Code: 1973-086CQ
Perigee: 1,288.7 km
Apogee: 1,733.9 km
Inclination: 101.9 °
Period: 116.1 minutes
Semi major axis: 7882 km
RCS: 0.0769 m2 (small)
Launch date: November 6, 1973
Source: United States (US)
Launch site: AIR FORCE WESTERN TEST RANGE (AFWTR)

Note: This is SATELLITE DEBRIS
Your satellite tracking list
Your tracking list is empty




NASA's NSSDC Master Catalog

Two Line Element Set (TLE):
1  7126U 73086CQ  24325.91909086  .00000393  00000-0  28413-2 0  9993
2  7126 101.9358 298.8050 0282434 261.6719 117.9756 12.40574344303480
Source of the keplerian elements: AFSPC